Location: Kapuskasing
(49.3803°N, 82.4001°W)
Time: 13:46:06
(UTC-05:00)

RS-44 - Visible Passes

Search period start: 12 December 2025 00:00
Search period end: 22 December 2025 00:00
Orbit: 1175 x 1510 km, 82.5° (Epoch: 12 December)

Date Brightness Start Highest point End Pass type
(mag) Time Alt. Az. Time Alt. Az. Time Alt. Az.
12 Dec ? 02:50:24 18° N 02:50:24 18° N 02:52:11 10° N visible
12 Dec ? 04:43:00 16° NNW 04:43:00 16° NNW 04:45:01 10° N visible
13 Dec ? 01:21:35 12° NNE 01:21:35 12° NNE 01:22:00 10° NNE visible
13 Dec ? 03:14:11 18° N 03:14:11 18° N 03:15:57 10° N visible
13 Dec ? 05:06:48 13° NNW 05:06:48 13° NNW 05:08:12 10° N visible
14 Dec ? 01:45:22 13° NNE 01:45:22 13° NNE 01:46:05 10° NNE visible
14 Dec ? 03:37:57 16° N 03:37:57 16° N 03:39:36 10° N visible
14 Dec ? 05:30:33 10° NNW 05:30:33 10° NNW 05:30:41 10° NNW visible
15 Dec ? 02:09:07 14° NNE 02:09:07 14° NNE 02:10:01 10° NNE visible
15 Dec ? 04:01:43 15° N 04:01:43 15° N 04:03:08 10° N visible
16 Dec ? 02:32:51 14° N 02:32:51 14° N 02:33:50 10° N visible
16 Dec ? 04:25:27 13° NNW 04:25:27 13° NNW 04:26:31 10° N visible
17 Dec ? 02:56:35 14° N 02:56:35 14° N 02:57:34 10° N visible
17 Dec ? 04:49:10 11° NNW 04:49:10 11° NNW 04:49:33 10° NNW visible
18 Dec ? 01:27:42 10° NNE 01:27:42 10° NNE 01:27:47 10° NNE visible
18 Dec ? 03:20:18 13° N 03:20:18 13° N 03:21:11 10° N visible
19 Dec ? 01:51:25 11° N 01:51:25 11° N 01:51:40 10° N visible
19 Dec ? 03:44:00 12° N 03:44:00 12° N 03:44:40 10° N visible
20 Dec ? 02:15:06 11° N 02:15:06 11° N 02:15:27 10° N visible
20 Dec ? 04:07:42 11° N 04:07:42 11° N 04:07:58 10° N visible
21 Dec ? 02:38:47 11° N 02:38:47 11° N 02:39:09 10° N visible
